Weather History for Crookston, MN

Change the Weather History Date:

Monday, February 18, 2013

  Actual Average Record
Temperature  
Mean Temperature 14 °F -  
Max Temperature 30 °F 22 °F 46 °F (2002)
Min Temperature -4 °F 5 °F -14 °F (2006)
Degree Days  
Heating Degree Days 51    
Moisture  
Dew Point 6 °F    
Average Humidity 90    
Maximum Humidity 100    
Minimum Humidity 78    
Precipitation  
Precipitation 0.03 in - - ()
Sea Level Pressure  
Sea Level Pressure 29.80 in    
Wind  
Wind Speed 24 mph (NNW)    
Max Wind Speed 44 mph    
Max Gust Speed 55 mph    
Visibility 1 miles    
Events Snow    
Averages and records for this station are not official NWS values.
T = Trace of Precipitation, MM = Missing Value Source: NWS Daily Summary

Daily Weather History Graph

Daily Weather History Graph

Search for Another Location

Airport:

Trip Planner

Search our weather history database for the weather conditions in past years. The results will help you decide how hot, cold, wet, or windy it might be!

Date:

Astronomy

Feb. 18, 2013 Rise Set
Actual Time 7:26 AM CST 5:54 PM CST
Civil Twilight 6:55 AM CST 6:26 PM CST
Nautical Twilight 6:19 AM CST 7:02 PM CST
Astronomical Twilight 5:43 AM CST 7:38 PM CST
Moon 11:28 AM CST (2/18) 2:20 AM CST (2/18)
Length of Visible Light 11h 30m
Length of Day
10h 27m
First Quarter, 58% of the Moon is Illuminated
Feb 18
First Quarter
Feb 25
Full
Mar 4
Last Quarter
Mar 11
New
Mar 19
First Quarter

Hourly Weather History & Observations

Time (CST) Temp. Windchill Dew Point Humidity Pressure Visibility Wind Dir Wind Speed Gust Speed Precip Events Conditions
12:15 AM 30.2 °F 22.6 °F 28.4 °F 93% 29.49 in 7.0 mi SSW 8.1 mph - N/A   Overcast
12:34 AM 30.2 °F 22.6 °F 28.4 °F 93% 29.49 in 1.5 mi SSW 8.1 mph - N/A   Overcast
12:54 AM 28.4 °F 21.2 °F 28.4 °F 100% 29.49 in 1.5 mi SW 6.9 mph - 0.01 in   Overcast
1:14 AM 28.4 °F 21.2 °F 28.4 °F 100% 29.49 in 3.0 mi SW 6.9 mph - 0.01 in   Overcast
1:34 AM 28.4 °F 22.2 °F 28.4 °F 100% 29.49 in 1.8 mi West 5.8 mph - 0.01 in Snow Light Snow
1:54 AM 28.4 °F 18.5 °F 28.4 °F 100% 29.49 in 1.0 mi NW 11.5 mph - N/A Snow Light Snow
2:14 AM 26.6 °F 16.2 °F 24.8 °F 93% 29.50 in 0.8 mi NNW 11.5 mph - 0.01 in Snow Snow
2:35 AM 24.8 °F 15.3 °F 24.8 °F 100% 29.50 in 0.8 mi NW 9.2 mph - 0.01 in Snow Snow
2:54 AM 24.8 °F 12.9 °F 24.8 °F 100% 29.49 in 1.2 mi NW 13.8 mph - N/A Snow Light Snow
3:14 AM 24.8 °F 12.9 °F 24.8 °F 100% 29.50 in 1.2 mi NW 13.8 mph - N/A Snow Light Snow
3:35 AM 24.8 °F 11.5 °F 24.8 °F 100% 29.50 in 2.5 mi NNW 17.3 mph - N/A Snow Light Snow
3:54 AM 24.8 °F 10.7 °F 24.8 °F 100% 29.49 in 1.2 mi NNW 19.6 mph - N/A Snow Light Snow
4:14 AM 24.8 °F 7.9 °F 23.0 °F 93% 29.49 in 0.8 mi NNW 29.9 mph - N/A Snow Snow
4:35 AM 21.2 °F 3.0 °F 21.2 °F 100% 29.50 in 0.8 mi NNW 29.9 mph 40.3 mph N/A Snow Snow
4:54 AM 21.2 °F 1.4 °F 19.4 °F 93% 29.51 in 0.5 mi NNW 36.8 mph 42.6 mph N/A Snow Snow
5:14 AM 19.4 °F -0.6 °F 17.6 °F 93% 29.53 in 0.2 mi NNW 34.5 mph 44.9 mph N/A Snow Heavy Snow
5:35 AM 17.6 °F -4.5 °F 15.8 °F 93% 29.55 in 0.2 mi North 41.4 mph 49.5 mph N/A Snow Heavy Snow
5:54 AM 17.6 °F -3.8 °F 15.8 °F 93% 29.58 in 0.2 mi North 38.0 mph 48.3 mph N/A Snow Heavy Snow
6:14 AM 15.8 °F -6.3 °F 14.0 °F 93% 29.60 in 0.2 mi North 38.0 mph 52.9 mph N/A Snow Heavy Snow
6:35 AM 14.0 °F -9.8 °F 12.2 °F 93% 29.61 in 0.2 mi North 42.6 mph 51.8 mph N/A Snow Heavy Snow
6:54 AM 12.2 °F -12.5 °F 10.4 °F 92% 29.63 in 0.2 mi NNW 43.7 mph 51.8 mph N/A Snow Heavy Snow
7:14 AM 12.2 °F -11.6 °F 10.4 °F 92% 29.64 in 0.2 mi North 39.1 mph 52.9 mph N/A Snow Heavy Snow
7:35 AM 10.4 °F -14.8 °F 8.6 °F 92% 29.65 in 0.2 mi North 42.6 mph 51.8 mph N/A Snow Heavy Snow
8:14 AM 10.4 °F -13.0 °F 6.8 °F 85% 29.68 in 0.2 mi North 34.5 mph 52.9 mph N/A Snow Heavy Snow
8:35 AM 8.6 °F -17.1 °F 6.8 °F 92% 29.69 in 0.2 mi North 41.4 mph 48.3 mph N/A Snow Heavy Snow
8:54 AM 8.6 °F -16.6 °F 6.8 °F 92% 29.70 in 0.2 mi North 39.1 mph 55.2 mph N/A Snow Heavy Snow
9:15 AM 8.6 °F -16.0 °F 6.8 °F 92% 29.72 in 0.2 mi North 36.8 mph 44.9 mph N/A Snow Heavy Snow
9:35 AM 8.6 °F -15.4 °F 5.0 °F 85% 29.74 in 0.2 mi North 34.5 mph 46.0 mph N/A Snow Heavy Snow
9:54 AM 8.6 °F -16.0 °F 5.0 °F 85% 29.74 in 0.2 mi North 36.8 mph 46.0 mph N/A Snow Heavy Snow
10:15 AM 6.8 °F -18.2 °F 5.0 °F 92% 29.76 in 0.2 mi North 35.7 mph 47.2 mph N/A Snow Heavy Snow
10:34 AM 6.8 °F -18.5 °F 3.2 °F 85% 29.77 in 0.2 mi North 36.8 mph 46.0 mph N/A Snow Heavy Snow
10:54 AM 6.8 °F -18.5 °F 3.2 °F 85% 29.78 in 0.2 mi North 36.8 mph 43.7 mph N/A Snow Heavy Snow
11:15 AM 6.8 °F -17.9 °F 3.2 °F 85% 29.80 in 0.2 mi North 34.5 mph 40.3 mph N/A Snow Heavy Snow
11:34 AM 6.8 °F -17.9 °F 1.4 °F 79% 29.82 in 0.2 mi North 34.5 mph 44.9 mph N/A Snow Heavy Snow
11:54 AM 5.0 °F -20.7 °F 1.4 °F 85% 29.84 in 0.2 mi NNW 35.7 mph 44.9 mph N/A Snow Heavy Snow
12:15 PM 5.0 °F -21.0 °F 1.4 °F 85% 29.85 in 0.2 mi North 36.8 mph 43.7 mph N/A Snow Heavy Snow
12:34 PM 5.0 °F -21.0 °F 1.4 °F 85% 29.85 in 0.2 mi North 36.8 mph 44.9 mph N/A Snow Heavy Snow
12:54 PM 3.2 °F -24.1 °F 1.4 °F 92% 29.85 in 0.2 mi North 39.1 mph 46.0 mph N/A Snow Heavy Snow
1:15 PM 3.2 °F -23.5 °F -0.4 °F 85% 29.86 in 0.2 mi North 36.8 mph 47.2 mph N/A Snow Snow
1:34 PM 3.2 °F -22.5 °F -0.4 °F 85% 29.87 in 0.2 mi North 33.4 mph 42.6 mph N/A Snow Snow
1:55 PM 3.2 °F -23.8 °F -0.4 °F 85% 29.88 in 0.2 mi North 38.0 mph - N/A Snow Snow
2:15 PM 3.2 °F -22.2 °F -0.4 °F 85% 29.89 in 0.2 mi North 32.2 mph 40.3 mph N/A Snow Snow
2:34 PM 3.2 °F -22.5 °F -0.4 °F 85% 29.90 in 0.2 mi North 33.4 mph 42.6 mph N/A Snow Snow
2:55 PM 1.4 °F -25.3 °F -0.4 °F 92% 29.91 in 0.2 mi North 34.5 mph 42.6 mph N/A Snow Snow
3:14 PM 1.4 °F -24.6 °F -0.4 °F 92% 29.91 in 0.2 mi North 32.2 mph 41.4 mph N/A Snow Snow
3:34 PM 1.4 °F -25.0 °F -2.2 °F 85% 29.92 in 0.2 mi North 33.4 mph 38.0 mph N/A Snow Snow
3:55 PM 1.4 °F -25.7 °F -2.2 °F 85% 29.93 in 0.2 mi North 35.7 mph 40.3 mph N/A Snow Snow
4:14 PM 1.4 °F -24.6 °F -2.2 °F 85% 29.94 in 0.2 mi North 32.2 mph 41.4 mph N/A Snow Snow
4:34 PM 1.4 °F -24.6 °F -2.2 °F 85% 29.95 in 0.2 mi North 32.2 mph 36.8 mph N/A Snow Snow
4:55 PM 1.4 °F -24.3 °F -2.2 °F 85% 29.96 in 0.2 mi North 31.1 mph 36.8 mph N/A Snow Light Snow
5:14 PM 1.4 °F -23.5 °F -2.2 °F 85% 29.97 in 0.2 mi North 28.8 mph 41.4 mph N/A Snow Light Snow
5:34 PM 1.4 °F -25.0 °F -2.2 °F 85% 29.98 in 0.2 mi North 33.4 mph 38.0 mph N/A Snow Snow
5:55 PM -0.4 °F -26.4 °F -2.2 °F 92% 30.00 in 0.2 mi North 29.9 mph 35.7 mph N/A Snow Snow
6:14 PM -0.4 °F -24.3 °F -2.2 °F 92% 30.01 in 0.8 mi North 24.2 mph - N/A Snow Light Snow
6:34 PM -0.4 °F -25.2 °F -2.2 °F 92% 30.02 in 1.0 mi North 26.5 mph 31.1 mph N/A Snow Light Snow
6:55 PM -0.4 °F -25.6 °F -2.2 °F 92% 30.03 in 0.8 mi North 27.6 mph 33.4 mph N/A Snow Light Snow
7:14 PM -0.4 °F -25.2 °F -4.0 °F 85% 30.04 in 0.8 mi North 26.5 mph 33.4 mph N/A Snow Light Snow
7:34 PM -0.4 °F -25.2 °F -2.2 °F 92% 30.04 in 0.8 mi North 26.5 mph - N/A Snow Light Snow
7:55 PM -0.4 °F -26.0 °F -2.2 °F 92% 30.04 in 0.8 mi North 28.8 mph 32.2 mph N/A Snow Light Snow
8:14 PM -0.4 °F -25.6 °F -2.2 °F 92% 30.05 in 0.8 mi North 27.6 mph 33.4 mph N/A Snow Light Snow
8:34 PM -0.4 °F -25.6 °F -2.2 °F 92% 30.05 in 0.8 mi North 27.6 mph 34.5 mph N/A Snow Light Snow
8:55 PM -0.4 °F -26.4 °F -4.0 °F 85% 30.05 in 0.5 mi North 29.9 mph 35.7 mph N/A Snow Snow
9:14 PM -0.4 °F -27.1 °F -4.0 °F 85% 30.06 in 0.5 mi North 32.2 mph 38.0 mph N/A Snow Snow
9:35 PM -0.4 °F -26.7 °F -4.0 °F 85% 30.07 in 0.5 mi North 31.1 mph 39.1 mph N/A Snow Snow
9:54 PM -0.4 °F -27.5 °F -4.0 °F 85% 30.08 in 0.5 mi North 33.4 mph 41.4 mph N/A Snow Snow
10:14 PM -0.4 °F -26.7 °F -5.8 °F 78% 30.08 in 0.5 mi North 31.1 mph 36.8 mph N/A Snow Snow
10:35 PM -2.2 °F -29.2 °F -5.8 °F 85% 30.08 in 0.5 mi North 31.1 mph 41.4 mph N/A Snow Snow
10:54 PM -2.2 °F -29.9 °F -5.8 °F 85% 30.09 in 0.5 mi North 33.4 mph 36.8 mph N/A Snow Snow
11:14 PM -2.2 °F -29.6 °F -5.8 °F 85% 30.10 in 0.5 mi North 32.2 mph 39.1 mph N/A Snow Snow
11:35 PM -2.2 °F -29.6 °F -7.6 °F 78% 30.11 in 0.5 mi North 32.2 mph 39.1 mph N/A Snow Snow
11:54 PM -4.0 °F -33.1 °F -7.6 °F 85% 30.12 in 0.5 mi North 35.7 mph 42.6 mph N/A Snow Snow